Gulfport, MS

5:58 AM CDT on June 24, 2017 (GMT -0500)
Gulfport-Biloxi Regional

Weather History for KGPT - February, 2013

Change the Weather History Date:

Sunday, February 10, 2013

  Actual Average Record
Temperature  
Mean Temperature 66 °F -  
Max Temperature 70 °F 60 °F 82 °F (1957)
Min Temperature 63 °F 40 °F 21 °F (1979)
Cooling Degree Days 1    
Growing Degree Days 16 (Base 50)    
Moisture  
Dew Point 64 °F    
Average Humidity 88    
Maximum Humidity 94    
Minimum Humidity 81    
Precipitation  
Precipitation 0.07 in - - ()
Sea Level Pressure  
Sea Level Pressure 30.01 in    
Wind  
Wind Speed 13 mph (SSE)    
Max Wind Speed 24 mph    
Max Gust Speed 31 mph    
Visibility 4 miles    
Events Rain    
Averages and records for this station are not official NWS values.
T = Trace of Precipitation, MM = Missing Value Source: NWS Daily Summary

Daily Weather History Graph

Daily Weather History Graph

Search for Another Location

Airport or City:

Trip Planner

Search our weather history database for the weather conditions in past years. The results will help you decide how hot, cold, wet, or windy it might be!

Date:

Astronomy

Feb. 10, 2013 Rise Set
Actual Time 6:40 AM CST 5:40 PM CST
Civil Twilight 6:15 AM CST 6:05 PM CST
Nautical Twilight 5:47 AM CST 6:33 PM CST
Astronomical Twilight 5:19 AM CST 7:02 PM CST
Moon 6:35 AM CST (2/10) 6:23 PM CST (2/10)
Length of Visible Light 11h 49m
Length of Day
11h 00m
New Moon, 0% of the Moon is Illuminated
Feb 10
New Moon
Feb 17
First Quarter
Feb 25
Full
Mar 4
Last Quarter
Mar 11
New

Hourly Weather History & Observations

Time (CST) Temp. Dew Point Humidity Pressure Visibility Wind Dir Wind Speed Gust Speed Precip Events Conditions
12:53 AM 63.0 °F 57.9 °F 84% 30.08 in - East 11.5 mph - N/A   Overcast
1:53 AM 63.0 °F 57.9 °F 84% 30.07 in - ESE 15.0 mph - N/A   Overcast
2:53 AM 63.0 °F 57.9 °F 84% 30.06 in - ESE 15.0 mph - N/A   Overcast
3:53 AM 63.0 °F 57.9 °F 84% 30.02 in - ESE 17.3 mph 25.3 mph N/A   Overcast
4:53 AM 63.0 °F 59.0 °F 87% 30.01 in - ESE 16.1 mph 21.9 mph 0.00 in   Overcast
5:53 AM 64.0 °F 59.0 °F 84% 30.02 in 10.0 mi ESE 13.8 mph - N/A   Overcast
6:53 AM 64.9 °F 60.1 °F 84% 30.02 in - SE 17.3 mph - N/A   Overcast
7:53 AM 64.9 °F 61.0 °F 87% 30.04 in 7.0 mi SE 17.3 mph 24.2 mph N/A   Overcast
8:53 AM 66.0 °F 61.0 °F 84% 30.04 in - SE 21.9 mph 27.6 mph N/A   Overcast
9:53 AM 66.9 °F 61.0 °F 81% 30.05 in - SE 16.1 mph 25.3 mph N/A   Overcast
10:53 AM 66.9 °F 62.1 °F 84% 30.04 in 7.0 mi SE 17.3 mph - N/A   Overcast
11:53 AM 68.0 °F 63.0 °F 84% 29.99 in - SE 24.2 mph 31.1 mph N/A   Overcast
12:53 PM 68.0 °F 63.0 °F 84% 29.98 in 6.0 mi SSE 16.1 mph 25.3 mph N/A   Overcast
1:53 PM 68.0 °F 64.0 °F 87% 29.97 in 6.0 mi SE 19.6 mph 25.3 mph N/A   Overcast
2:53 PM 69.1 °F 64.0 °F 84% 29.95 in 6.0 mi SSE 15.0 mph - N/A   Overcast
3:50 PM 68.0 °F 64.4 °F 88% 29.96 in - SSE 12.7 mph - N/A   Overcast
3:53 PM 68.0 °F 64.9 °F 90% 29.96 in - SSE 11.5 mph - N/A   Overcast
4:27 PM 66.2 °F 64.4 °F 94% 29.96 in 2.0 mi SSE 10.4 mph - 0.07 in   Overcast
4:53 PM 66.9 °F 64.9 °F 93% 29.96 in 2.0 mi South 9.2 mph - 0.07 in   Overcast
5:32 PM 68.0 °F 66.2 °F 94% 29.97 in 2.0 mi South 8.1 mph - 0.00 in Rain Light Rain
5:53 PM 68.0 °F 66.0 °F 93% 29.98 in 2.0 mi South 6.9 mph - 0.00 in   Overcast
6:00 PM 68.0 °F 66.2 °F 94% 29.98 in - South 8.1 mph - N/A   Overcast
6:53 PM 69.1 °F 66.9 °F 93% 29.99 in - South 9.2 mph 18.4 mph N/A   Overcast
7:36 PM 69.8 °F 66.2 °F 88% 30.00 in 2.0 mi South 11.5 mph 20.7 mph N/A   Overcast
7:44 PM 69.8 °F 66.2 °F 88% 30.00 in 2.0 mi South 10.4 mph 17.3 mph N/A   Overcast
7:50 PM 69.8 °F 66.2 °F 88% 30.00 in 3.0 mi South 9.2 mph - N/A   Overcast
7:51 PM 69.1 °F 66.9 °F 93% 30.00 in 3.0 mi South 9.2 mph - N/A   Overcast
8:53 PM 69.1 °F 66.9 °F 93% 30.01 in 2.0 mi South 8.1 mph 17.3 mph N/A   Overcast
9:21 PM 69.8 °F 66.2 °F 88% 30.01 in 1.5 mi South 10.4 mph - N/A   Overcast
9:53 PM 69.1 °F 66.9 °F 93% 30.01 in 1.0 mi South 10.4 mph - N/A   Overcast
10:12 PM 69.8 °F 66.2 °F 88% 30.01 in 2.0 mi South 9.2 mph 17.3 mph N/A   Overcast
10:50 PM 69.8 °F 66.2 °F 88% 30.01 in 3.0 mi South 8.1 mph - N/A   Mostly Cloudy
10:53 PM 69.1 °F 66.9 °F 93% 30.02 in 3.0 mi South 8.1 mph - N/A   Mostly Cloudy
11:23 PM 69.8 °F 66.2 °F 88% 30.02 in - South 9.2 mph - N/A   Mostly Cloudy
11:43 PM 69.8 °F 68.0 °F 94% 30.02 in - South 8.1 mph - N/A   Scattered Clouds
11:53 PM 70.0 °F 68.0 °F 93% 30.02 in - South 8.1 mph - N/A   Scattered Clouds